CAPE
9 0 0 0 0 4 19 68 313 855 861 898 974 675 430 375 343 230 32 28 2 4
101 24 1 1 0 3 11 9 13 45 6 467 941 878 611 445 400 289 128 34 16 5
83 83 21 13 0 0 0 0 3 27 56 12 598 756 730 517 396 383 275 55 79 24
91 134 52 4 0 3 0 3 0 13 47 1 39 378 558 376 368 354 394 254 69 38
43 165 80 60 0 0 0 0 116 0 54 40 32 54 40 53 59 258 391 340 169 48
0 4 1 1 0 3 0 0 0 5 36 22 28 44 19 0 20 223 239 265 165 118
0 0 0 0 0 0 0 0 0 0 0 1 36 17 4 4 0 30 66 210 177 213
0 0 0 6 1 1 0 0 0 0 0 0 3 10 4 2 2 0 2 18 149 109
0 0 0 0 0 0 0 5 0 0 0 21 15 7 4 0 0 0 0 0 3 88
0 0 0 0 0 0 0 0 0 0 2 4 1 8 0 3 4 7 13 23 1 31
0 0 0 0 0 0 0 0 0 0 0 4 3 1 0 5 4 9 58 8 0 28
0 0 0 0 0 0 0 0 0 0 0 0 0 0 0 0 3 16 3 22 29 46
0 0 0 0 0 0 0 0 0 0 0 0 0 0 5 0 1 0 0 5 6 3
0 0 0 0 0 0 0 0 0 0 0 0 0 0 0 0 4 0 0 0 6 1
CIN
-24 -0 -0 -0 -0 -79 -48 -0 -3 -0 -0 -1 -36 -67 -72 -67 -25 -25 -239 -270 -85 -303
-5 -29 -28 -1 -0 -0 -2 -1 -0 -4 -0 -0 -0 -7 -38 -58 -56 -47 -50 -237 -248 -285
-3 -0 -25 -14 -0 -0 -0 -1 -0 -18 -18 -17 -0 -0 -1 -31 -45 -51 -32 -169 -182 -211
-1 -0 -4 -37 -0 -98 -0 -7 -0 -24 -38 -1 -33 -0 -0 -6 -24 -43 -40 -45 -141 -182
-4 -0 -0 -0 -4 -0 -0 -0 -0 -1 -40 -0 -0 -0 -1 -1 -0 -7 -34 -42 -69 -140
-0 -1 -0 -0 -0 -0 -0 -0 -0 -7 -0 -0 -0 -0 -1 -0 -0 -0 -4 -36 -81 -100
-0 -0 -0 -0 -0 -0 -0 -0 -1 -0 -0 -0 -1 -0 -0 -0 -0 -4 -6 -0 -31 -71
-0 -0 -0 -0 -0 -0 -0 -0 -0 -0 -0 -0 -0 -1 -2 -0 -0 -0 -0 -21 -1 -42
-0 -0 -0 -0 -0 -0 -0 -0 -0 -0 -0 -0 -0 -0 -0 -0 -0 -0 -0 -0 -0 -0
-0 -0 -0 -0 -0 -0 -0 -0 -0 -0 -0 -0 -0 -0 -0 -0 -0 -0 -6 -0 -0 -0
-0 -0 -0 -0 -0 -0 -0 -0 -0 -0 -0 -0 -0 -1 -0 -1 -2 -5 -1 -3 -0 -2
-0 -0 -0 -0 -0 -0 -0 -0 -0 -0 -0 -0 -0 -0 -0 -0 -0 -2 -0 -0 -0 -0
-0 -0 -0 -0 -0 -0 -0 -0 -0 -0 -0 -0 -0 -0 -0 -0 -0 -0 -0 -0 -1 -17
-0 -0 -0 -0 -0 -0 -0 -0 -0 -0 -0 -0 -0 -0 -0 -0 -0 -0 -0 -0 -0 -0
Wind_Speed
nan nan nan nan nan nan nan nan 46 36 48 48 52 42 47 45 44 40 nan nan nan nan
52 nan nan nan nan nan nan nan nan nan nan 67 60 47 49 48 46 42 39 nan nan nan
nan nan nan nan nan nan nan nan nan nan nan nan 75 61 56 51 50 45 44 nan nan nan
nan 57 nan nan nan nan nan nan nan nan nan nan nan 60 58 52 48 47 45 44 nan nan
nan 58 nan nan nan nan nan nan 74 nan nan nan nan nan nan nan nan 45 43 45 47 nan
nan nan nan nan nan nan nan nan nan nan nan nan nan nan nan nan nan 66 45 46 44 43
nan nan nan nan nan nan nan nan nan nan nan nan nan nan nan nan nan nan nan 50 48 46
nan nan nan nan nan nan nan nan nan nan nan nan nan nan nan nan nan nan nan nan 51 50
nan nan nan nan nan nan nan nan nan nan nan nan nan nan nan nan nan nan nan nan nan nan
nan nan nan nan nan nan nan nan nan nan nan nan nan nan nan nan nan nan nan nan nan nan
nan nan nan nan nan nan nan nan nan nan nan nan nan nan nan nan nan nan nan nan nan nan
nan nan nan nan nan nan nan nan nan nan nan nan nan nan nan nan nan nan nan nan nan nan
nan nan nan nan nan nan nan nan nan nan nan nan nan nan nan nan nan nan nan nan nan nan
nan nan nan nan nan nan nan nan nan nan nan nan nan nan nan nan nan nan nan nan nan nan
Wind_Direction
nan nan nan nan nan nan nan nan 214 227 230 235 239 236 240 234 236 232 nan nan nan nan
223 nan nan nan nan nan nan nan nan nan nan 217 231 233 237 231 236 230 233 nan nan nan
nan nan nan nan nan nan nan nan nan nan nan nan 212 228 231 228 228 232 227 nan nan nan
nan 223 nan nan nan nan nan nan nan nan nan nan nan 220 226 223 228 232 230 234 nan nan
nan 225 nan nan nan nan nan nan 229 nan nan nan nan nan nan nan nan 231 230 238 236 nan
nan nan nan nan nan nan nan nan nan nan nan nan nan nan nan nan nan 212 229 233 232 235
nan nan nan nan nan nan nan nan nan nan nan nan nan nan nan nan nan nan nan 221 232 229
nan nan nan nan nan nan nan nan nan nan nan nan nan nan nan nan nan nan nan nan 229 235
nan nan nan nan nan nan nan nan nan nan nan nan nan nan nan nan nan nan nan nan nan nan
nan nan nan nan nan nan nan nan nan nan nan nan nan nan nan nan nan nan nan nan nan nan
nan nan nan nan nan nan nan nan nan nan nan nan nan nan nan nan nan nan nan nan nan nan
nan nan nan nan nan nan nan nan nan nan nan nan nan nan nan nan nan nan nan nan nan nan
nan nan nan nan nan nan nan nan nan nan nan nan nan nan nan nan nan nan nan nan nan nan
nan nan nan nan nan nan nan nan nan nan nan nan nan nan nan nan nan nan nan nan nan nan